Stations météo

Publicité
Alencon, France (7139): Température de l'air & dewpoint: 13.02.2020 07:00:00 - 19.02.2020 07:00:00 (CET)Alencon, France (7139): Température de l'air 5cm: 13.02.2020 07:00:00 - 19.02.2020 07:00:00 (CET)Alencon, France (7139): Température de l'air -20cm & Température de l'air -100cm: 13.02.2020 07:00:00 - 19.02.2020 07:00:00 (CET)Alencon, France (7139): Vitesse du vent & gusts: 13.02.2020 07:00:00 - 19.02.2020 07:00:00 (CET)Alencon, France (7139): Direction du vent: 13.02.2020 07:00:00 - 19.02.2020 07:00:00 (CET)Alencon, France (7139): reduced air pressure: 13.02.2020 07:00:00 - 19.02.2020 07:00:00 (CET)Alencon, France (7139): visibility: 13.02.2020 07:00:00 - 19.02.2020 07:00:00 (CET)Alencon, France (7139): Ensoleillement: 13.02.2020 07:00:00 - 19.02.2020 07:00:00 (CET)Alencon, France (7139): Quantités de précipitations: 13.02.2020 07:00:00 - 19.02.2020 07:00:00 (CET)
Date & Time tt [°C] td [°C] tt 5cm [°C] tt -20cm [°C] tt -100cm [°C] ff [km/h] ff [knt] fx [km/h] fx [knt] dd ppp [hPa] vv [km] sd [min] rr [mm]
19.02.2020 07:00:00 - - - - - - - - - - - - - -
19.02.2020 06:00:00 5,6 3,9 3,8 7,6 8,4 11 6 23 12 WSW 1025,8 20 0 0,0
19.02.2020 05:00:00 5,2 3,5 3,2 7,6 8,4 6 3 22 12 WSW 1025,3 20 0 0,0
19.02.2020 04:00:00 5,8 4,0 4,6 7,6 8,4 11 6 31 17 WSW 1024,6 20 0 0,4
19.02.2020 03:00:00 6,3 4,6 5,2 7,7 8,4 13 7 46 25 W 1024,7 9 0 0,4
19.02.2020 02:00:00 6,3 4,0 5,3 7,7 8,4 33 18 64 35 W 1024,3 9 0 2,4
19.02.2020 01:00:00 8,0 5,5 6,7 7,7 8,4 29 16 48 26 SW 1023,4 13 0 0,0
19.02.2020 00:00:00 8,1 5,0 7,4 7,7 8,4 27 15 49 26 SW 1023,7 20 0 0,0
18.02.2020 23:00:00 7,8 4,7 6,9 7,8 8,5 24 13 45 25 SSW 1024,1 20 0 0,0
18.02.2020 22:00:00 7,5 4,4 6,2 7,7 8,4 25 13 42 23 SW 1024,9 20 0 0,0
18.02.2020 21:00:00 7,7 4,3 6,1 7,7 8,4 26 14 36 20 SSW 1025,4 20 0 0,0
18.02.2020 20:00:00 7,8 4,2 6,3 7,7 8,4 20 11 34 18 SSW 1025,8 20 0 0,0
18.02.2020 19:00:00 8,4 4,2 7,4 7,7 8,4 23 13 37 20 SW 1026,3 20 0 0,0
18.02.2020 18:00:00 9,2 4,6 8,4 7,6 8,4 22 12 40 21 SSW 1026,1 20 13 0,0
18.02.2020 17:00:00 10,4 3,7 9,8 7,5 8,4 23 12 40 21 WSW 1026,3 20 28 0,0
18.02.2020 16:00:00 10,8 3,3 10,4 7,5 8,4 28 15 42 23 SW 1026,9 20 34 0,0
18.02.2020 15:00:00 9,8 3,7 9,4 7,4 8,4 18 10 37 20 SW 1027,4 20 3 0,0
18.02.2020 14:00:00 10,0 3,9 10,8 7,3 8,4 29 16 41 22 WSW 1028,0 20 38 0,0
18.02.2020 13:00:00 9,2 4,8 10,2 7,2 8,4 24 13 37 20 SW 1028,8 20 43 0,0
18.02.2020 12:00:00 8,6 4,8 10,4 7,3 8,4 21 11 35 19 SW 1029,1 19 55 0,0
18.02.2020 11:00:00 7,5 4,3 9,0 7,4 8,4 19 10 33 18 SW 1029,5 19 60 0,0
18.02.2020 10:00:00 5,4 3,4 0,6 7,4 8,4 13 7 18 10 SW 1029,5 19 60 0,0
18.02.2020 09:00:00 1,9 1,0 -1,3 7,6 8,4 5 3 8 5 SSW 1029,6 14 33 0,0
18.02.2020 08:00:00 1,4 0,4 -1,8 7,6 8,4 3 2 12 7 SSE 1029,0 15 0 0,0
18.02.2020 07:00:00 1,7 0,7 -1,0 7,7 8,4 4 2 9 5 SE 1028,7 17 0 0,0
18.02.2020 06:00:00 2,4 0,6 0,5 7,8 8,4 6 4 18 10 SE 1028,5 20 0 0,0
18.02.2020 05:00:00 3,4 1,3 1,9 7,9 8,4 10 5 24 13 SW 1028,4 20 0 0,0
18.02.2020 04:00:00 3,6 1,6 1,3 8,0 8,4 14 7 24 13 SW 1028,2 20 0 0,0
18.02.2020 03:00:00 3,5 1,7 0,9 8,1 8,4 13 7 19 11 SSW 1028,0 20 0 0,0
18.02.2020 02:00:00 4,0 2,0 1,6 8,2 8,4 14 8 22 12 SSW 1027,7 20 0 0,0
18.02.2020 01:00:00 4,2 2,1 2,5 8,4 8,4 11 6 27 15 SSW 1027,4 20 0 0,0
18.02.2020 00:00:00 4,8 2,5 3,4 8,4 8,4 15 8 34 18 SW 1026,7 20 0 0,0
17.02.2020 23:00:00 5,1 2,6 3,6 8,5 8,4 18 10 30 16 WSW 1026,1 20 0 0,0
17.02.2020 22:00:00 5,2 2,5 3,6 8,6 8,3 18 10 32 18 WSW 1025,3 20 0 0,0
17.02.2020 21:00:00 5,6 2,8 0,2 8,7 8,3 18 10 27 14 WSW 1024,8 20 0 0,0
17.02.2020 20:00:00 4,4 2,6 0,2 8,7 8,3 6 3 14 8 SSW 1024,2 20 0 0,0
17.02.2020 19:00:00 5,6 2,8 2,9 8,7 8,3 12 6 34 18 W 1023,4 20 0 0,2
17.02.2020 18:00:00 6,6 2,7 4,5 8,7 8,3 13 7 36 19 SW 1021,9 20 29 2,8
17.02.2020 17:00:00 9,4 3,1 8,8 8,6 8,3 23 12 54 29 SW 1020,6 20 46 0,0
17.02.2020 16:00:00 10,7 2,5 10,1 8,6 8,3 34 19 57 31 WSW 1019,9 20 48 0,0
17.02.2020 15:00:00 10,9 3,2 11,6 8,6 8,3 32 17 50 27 WSW 1019,2 19 55 0,0
17.02.2020 14:00:00 8,8 4,2 4,8 8,5 8,2 25 13 65 35 SW 1019,3 20 24 0,4
17.02.2020 13:00:00 7,1 2,4 7,9 8,5 8,2 39 21 71 38 W 1019,8 20 34 0,0
17.02.2020 12:00:00 10,2 4,6 9,0 8,6 8,2 34 19 61 33 SW 1018,6 18 43 0,0
17.02.2020 11:00:00 9,0 4,6 9,2 8,6 8,2 34 19 58 32 SW 1018,1 19 49 0,0
17.02.2020 10:00:00 8,5 5,4 7,0 8,6 8,2 21 12 38 20 SW 1017,5 20 46 0,0
17.02.2020 09:00:00 7,2 5,0 5,7 8,7 8,2 18 10 39 21 SSW 1017,1 20 4 0,0
17.02.2020 08:00:00 7,6 5,7 6,0 8,8 8,2 18 10 27 15 SSW 1016,3 20 0 0,0
17.02.2020 07:00:00 7,8 6,1 6,1 8,8 8,2 16 8 44 24 SSW 1015,9 20 0 0,2
17.02.2020 06:00:00 8,1 6,2 7,4 8,9 8,2 16 9 29 16 SSW 1015,7 20 0 0,0
17.02.2020 05:00:00 8,2 6,3 7,4 8,9 8,2 18 10 29 16 SSW 1015,6 20 0 0,0
17.02.2020 04:00:00 8,1 6,1 7,2 9,0 8,2 17 9 27 15 SSW 1015,7 20 0 0,0
17.02.2020 03:00:00 8,1 5,9 7,1 9,0 8,2 16 8 32 17 SSW 1016,0 20 0 0,0
17.02.2020 02:00:00 8,1 5,9 7,2 9,1 8,2 20 11 37 20 SSW 1016,1 20 0 0,0
17.02.2020 01:00:00 8,2 6,0 7,4 9,1 8,2 19 10 34 18 SSW 1015,7 20 0 0,0
17.02.2020 00:00:00 8,3 5,8 7,5 9,1 8,1 25 13 43 23 SW 1014,9 20 0 0,0
16.02.2020 23:00:00 8,4 6,4 7,2 9,2 8,1 24 13 44 24 SSW 1014,3 20 0 0,0
16.02.2020 22:00:00 8,2 6,0 7,3 9,2 8,1 28 15 42 23 SW 1013,3 20 0 0,4
16.02.2020 21:00:00 8,4 6,5 7,5 9,2 8,2 26 14 45 24 WSW 1012,8 18 0 0,8
16.02.2020 20:00:00 8,4 7,0 7,8 9,2 8,1 23 13 53 28 WSW 1010,9 6 0 0,8
16.02.2020 19:00:00 8,6 7,2 8,1 9,1 8,1 25 14 72 39 W 1009,8 4,7 0 2,8
16.02.2020 18:00:00 14,2 11,5 12,7 9,0 8,1 44 24 80 43 SSW 1006,6 9 0 0,0
16.02.2020 17:00:00 14,9 11,3 12,9 9,0 8,1 44 24 85 46 SSW 1006,2 19 0 0,0
16.02.2020 16:00:00 15,1 11,1 13,1 8,9 8,1 50 27 89 48 SSW 1005,9 12 0 0,0
16.02.2020 15:00:00 16,2 10,9 15,4 8,8 8,1 49 26 88 48 SSW 1005,7 20 0 0,0
16.02.2020 14:00:00 15,9 10,9 15,0 8,8 8,1 46 25 81 44 SSW 1006,0 20 0 0,0
16.02.2020 13:00:00 15,2 10,8 13,9 8,7 8,1 45 24 66 36 SSW 1006,7 20 0 0,0
16.02.2020 12:00:00 14,5 10,7 12,5 8,7 8,1 41 22 82 44 SSW 1007,7 20 0 0,0
16.02.2020 11:00:00 14,2 10,6 12,4 8,7 8,1 44 24 77 41 SSW 1007,3 19 0 0,0
16.02.2020 10:00:00 12,8 10,5 11,2 8,6 8,1 32 17 60 33 SSW 1007,1 20 0 0,2
16.02.2020 09:00:00 12,3 10,7 11,2 8,6 8,1 38 21 69 37 S 1007,5 3,5 0 0,0
16.02.2020 08:00:00 12,6 9,8 11,1 8,6 8,1 36 20 72 39 SSW 1008,1 9 0 0,2
16.02.2020 07:00:00 13,1 10,1 11,1 8,5 8,1 43 23 79 42 SSW 1008,3 10 0 0,2
16.02.2020 06:00:00 12,4 9,8 10,8 8,5 8,1 40 21 70 38 SSW 1009,3 18 0 0,2
16.02.2020 05:00:00 12,3 10,0 10,9 8,4 8,1 41 22 71 39 SSW 1010,0 13 0 0,4
16.02.2020 04:00:00 12,1 10,2 11,0 8,4 8,1 42 23 77 41 SSW 1010,8 9 0 1,4
16.02.2020 03:00:00 12,2 10,3 10,8 8,4 8,1 42 23 69 37 SSW 1011,3 9 0 1,0
16.02.2020 02:00:00 11,9 10,0 10,8 8,4 8,0 35 19 72 39 SSW 1011,7 11 0 0,4
16.02.2020 01:00:00 12,1 9,8 10,5 8,4 8,1 36 20 59 32 SSW 1012,4 13 0 0,6
16.02.2020 00:00:00 12,4 8,7 10,8 8,4 8,1 34 19 68 37 SSW 1013,0 18 0 0,0
15.02.2020 23:00:00 12,3 7,6 11,1 8,3 8,0 29 16 48 26 SSW 1013,2 20 0 0,0
15.02.2020 22:00:00 11,9 7,0 11,1 8,3 8,0 28 15 50 27 S 1013,9 20 0 0,0
15.02.2020 21:00:00 12,4 7,3 11,4 8,3 8,1 33 18 59 32 SSW 1014,0 20 0 0,0
15.02.2020 20:00:00 12,2 7,9 10,0 8,2 8,0 32 17 57 31 S 1014,6 20 0 0,0
15.02.2020 19:00:00 11,6 8,4 9,9 8,2 8,0 29 16 61 33 S 1014,4 16 0 0,2
15.02.2020 18:00:00 12,4 7,5 11,3 8,1 8,0 32 17 55 30 S 1015,0 20 0 0,0
15.02.2020 17:00:00 12,8 7,2 12,0 8,1 8,0 29 16 53 28 S 1014,8 20 0 0,0
15.02.2020 16:00:00 13,0 7,2 12,6 8,0 8,0 25 14 49 26 S 1015,0 20 0 0,0
15.02.2020 15:00:00 12,8 7,9 12,5 7,9 8,0 23 12 44 24 S 1015,4 20 0 0,0
15.02.2020 14:00:00 12,4 7,7 12,5 7,8 8,0 26 14 53 29 S 1017,2 20 4 0,0
15.02.2020 13:00:00 12,6 8,1 14,0 7,8 8,0 29 16 56 30 S 1017,1 19 58 0,0
15.02.2020 12:00:00 11,8 8,1 11,3 7,7 8,0 27 15 45 25 S 1018,0 18 27 0,0
15.02.2020 11:00:00 10,5 7,9 10,7 7,7 8,0 27 14 46 25 S 1019,0 19 30 0,0
15.02.2020 10:00:00 9,7 8,0 8,7 7,7 8,0 23 12 41 22 S 1019,3 17 26 0,0
15.02.2020 09:00:00 9,1 7,9 8,5 7,7 8,0 20 11 39 21 S 1020,2 15 0 0,0
15.02.2020 08:00:00 8,9 7,8 8,5 7,7 8,0 18 10 33 18 S 1019,8 13 0 0,0
15.02.2020 07:00:00 8,8 7,9 8,3 7,7 8,0 16 9 32 18 S 1020,4 10 0 0,0
15.02.2020 06:00:00 8,7 8,1 8,2 7,7 8,0 14 8 28 15 S 1020,7 7 0 0,0
15.02.2020 05:00:00 8,5 8,1 7,8 7,7 8,0 14 8 22 12 S 1021,4 5 0 0,2
15.02.2020 04:00:00 8,1 7,3 7,7 7,7 8,0 12 7 27 14 S 1021,6 3,9 0 0,0
15.02.2020 03:00:00 8,4 7,3 7,7 7,7 8,0 18 10 29 16 S 1021,9 7 0 0,0
15.02.2020 02:00:00 8,1 6,6 7,4 7,8 8,0 14 7 27 14 S 1022,1 10 0 0,0
15.02.2020 01:00:00 7,9 6,0 6,7 7,8 8,0 11 6 20 11 S 1022,7 12 0 0,0
15.02.2020 00:00:00 7,4 5,5 5,9 7,8 8,0 13 7 22 12 SSW 1022,6 12 0 0,0
14.02.2020 23:00:00 7,8 5,4 6,3 7,9 8,0 13 7 21 11 S 1023,2 13 0 0,0
14.02.2020 22:00:00 8,6 5,9 7,5 7,8 8,0 11 6 18 10 S 1023,2 13 0 0,0
14.02.2020 21:00:00 8,9 5,8 7,0 7,8 8,0 10 6 16 9 S 1023,6 13 0 0,0
14.02.2020 20:00:00 9,2 5,9 6,6 7,8 8,0 12 6 19 10 S 1023,6 14 0 0,0
14.02.2020 19:00:00 10,0 5,8 8,3 7,7 8,0 13 7 23 13 S 1023,7 15 0 0,0
14.02.2020 18:00:00 10,6 5,8 9,3 7,7 8,0 17 9 32 17 SSW 1023,4 17 18 0,0
14.02.2020 17:00:00 11,4 5,9 11,1 7,6 8,0 17 9 34 18 SSW 1023,1 18 0 0,0
14.02.2020 16:00:00 11,6 5,7 12,3 7,4 8,0 20 11 36 20 SSW 1023,1 17 11 0,0
14.02.2020 15:00:00 12,4 6,2 13,3 7,4 8,0 27 15 43 23 SSW 1023,1 17 52 0,0
14.02.2020 14:00:00 11,4 6,5 12,3 7,3 8,0 19 11 35 19 SW 1023,5 16 24 0,0
14.02.2020 13:00:00 11,3 6,2 12,3 7,2 8,0 20 11 36 20 SW 1023,9 17 37 0,0
14.02.2020 12:00:00 10,4 6,5 10,7 7,2 8,0 18 10 25 14 SSW 1024,2 18 29 0,0
14.02.2020 11:00:00 9,0 6,3 9,4 7,2 8,0 14 7 21 11 SSW 1024,3 14 0 0,0
14.02.2020 10:00:00 8,6 5,9 7,6 7,2 8,0 10 6 21 11 SSW 1023,8 16 0 0,0
14.02.2020 09:00:00 8,0 5,3 7,1 7,2 8,0 9 5 18 10 SW 1023,3 18 0 0,0
14.02.2020 08:00:00 7,9 5,4 6,8 7,2 8,0 9 5 17 9 SW 1022,4 18 0 0,0
14.02.2020 07:00:00 7,8 5,3 6,5 7,2 8,0 5 3 10 5 SW 1021,5 18 0 0,0
14.02.2020 06:00:00 7,7 5,5 6,7 7,2 8,0 3 2 15 8 WSW 1020,5 17 0 0,0
14.02.2020 05:00:00 7,9 5,5 6,9 7,2 8,0 12 6 18 10 SW 1019,8 18 0 0,0
14.02.2020 04:00:00 7,7 5,8 6,6 7,2 8,0 11 6 22 12 SW 1019,1 16 0 0,0
14.02.2020 03:00:00 7,6 6,2 6,8 7,2 8,0 14 8 24 13 WSW 1018,5 10 0 0,0
14.02.2020 02:00:00 8,0 6,1 6,7 7,2 8,0 16 9 29 16 WSW 1018,3 7 0 0,0
14.02.2020 01:00:00 8,0 6,0 7,2 7,2 8,0 14 8 29 16 SW 1017,3 14 0 0,0
14.02.2020 00:00:00 8,2 5,8 7,1 7,2 8,0 19 10 41 22 W 1016,4 18 0 0,2
13.02.2020 23:00:00 8,4 6,5 7,2 7,2 8,0 16 9 35 19 W 1015,1 15 0 0,0
13.02.2020 22:00:00 8,8 6,2 7,6 7,2 8,0 22 12 39 21 W 1013,9 18 0 0,0
13.02.2020 21:00:00 8,9 6,0 7,3 7,2 8,0 17 9 43 23 W 1012,5 15 0 0,0
13.02.2020 20:00:00 8,9 6,5 7,1 7,1 8,0 34 19 61 33 W 1010,4 15 0 0,0
13.02.2020 19:00:00 9,0 5,9 7,4 7,1 8,0 37 20 68 37 W 1008,2 15 0 0,0
13.02.2020 18:00:00 8,8 6,6 7,5 7,1 8,0 29 15 61 33 W 1006,3 7 5 0,4
13.02.2020 17:00:00 9,6 6,1 6,7 7,0 8,1 35 19 64 35 W 1004,7 17 14 1,3
13.02.2020 16:00:00 7,4 5,5 6,2 7,0 8,1 30 16 61 33 W 1003,6 4,9 0 4,4
13.02.2020 15:00:00 9,6 5,4 7,7 6,9 8,1 46 25 81 44 SW 1001,7 8 2 0,2
13.02.2020 14:00:00 10,6 4,7 10,9 6,8 8,0 42 23 70 38 SW 1001,7 17 35 0,0
13.02.2020 13:00:00 10,4 4,5 9,6 6,8 8,1 44 24 74 40 SW 1002,7 13 32 0,0
13.02.2020 12:00:00 9,8 4,4 9,4 6,7 8,1 37 20 62 34 SW 1003,4 15 39 0,0
13.02.2020 11:00:00 10,1 5,3 9,3 6,7 8,1 35 19 56 30 SW 1003,4 13 49 0,0
13.02.2020 10:00:00 9,4 4,6 7,6 6,6 8,1 30 16 68 37 WSW 1003,4 15 18 0,0
13.02.2020 09:00:00 9,1 5,6 7,4 6,6 8,1 40 22 87 47 WSW 1002,8 20 0 3,7
13.02.2020 08:00:00 8,1 7,3 6,7 6,6 8,1 34 18 54 29 S 1001,8 5 0 0,2
13.02.2020 07:00:00 7,2 6,3 6,1 6,7 8,1 32 17 56 30 S 1004,0 4,8 0 0,4

tt = Température de l'air
td = dewpoint
tt 5cm = Température de l'air 5cm
tt -20cm = Température de l'air -20cm
tt -100cm = Température de l'air -100cm
ff = Vitesse du vent
fx = gusts
dd = Direction du vent
ppp = reduced air pressure
vv = visibility
sd = Ensoleillement
rr = Quantités de précipitations

stations d'obs. à proximité